Location: Murdochville
(48.9591°N, 65.4950°W)
Time: 21:17:07
(UTC-04:00)

Envisat - Pass Details

Date: 20 April 2026
Orbit: 761 x 762 km, 98.4° (Epoch: 15 May)

Event Time Altitude Azimuth Distance (km) Brightness Sun altitude
Rises 04:07:22 0° 7° (N) 3,236 6.9 -11.7°
Reaches altitude 10° 04:09:52 10° 358° (N) 2,305 5.9 -11.4°
Maximum altitude 04:14:21 33° 296° (WNW) 1,277 3.9 -10.7°
Enters shadow 04:18:08 13° 238° (WSW) 2,065 4.5 -10.2°
